星链-35768(STARLINK-35768)

导读

STARLINK-35821是美国SpaceX星链计划的卫星,于2025年11月6日发射,属于低轨互联网星座成员。该卫星旨在为全球提供高速低延迟互联网服务,尤其覆盖偏远与网络基础设施匮乏区域。星链星座持续扩建,该卫星加入进一步完善了全球卫星通信网络覆盖密度与服务能力。

Basic Information
目录编号:
66372
目录名称:
STARLINK-35821
国际标识:
2025-254AA
轨道中心:
EARTH
卫星名称:
星链-35768
卫星全名:
星链-35768(STARLINK-35768)
卫星状态:
在轨 (已飞行302 天)
发射日期:
2025-11-06 UTC
国别 :
美国 (US)
星等 :
--
Orbit Information
数据来源 国际轨道数据 AOE轨道数据
星历时间 2026-09-04T09:06:09+0800
9小时前
查看轨道信息
2026-09-03T23:00:00+0800
20小时前
查看轨道信息
半长轴 6840.841km 6840.872km
偏心率 0.0000934 0.0000814
轨道倾角 53.159° 53.159°
近地点辐角 80.581° 79.150°
升交点赤经 120.355° 122.324°
平近点角 279.530° 114.445°
近地点 462.065km 462.178km
远地点 463.343km 463.292km
周期 93.848分钟 93.848分钟
每日圈数 15.344 15.343895
Detailed Information
固有亮度:
5
最大亮度:
2.5
卫星平台:
Starlink V1.0
覆盖范围:
全球
运营商:
太空探索技术公司
运营商所在国:
美国
制造商(研发单位):
太空探索技术公司
制造商所在国:
美国
使用方式:
暂无
Satellite Introduction
Starlink 计划是 SpaceX 推出的全球卫星互联网项目,通过发射低轨道卫星,为全球尤其是偏远地区提供高速、低延迟的互联网服务。自 2019 年起,Starlink 已部署数千颗卫星,旨在缩小全球数字鸿沟,推动互联网普及。该项目还为军事、航空等行业提供通信支持,带来广泛经济效益。
2D Orbit Map
3D Orbit Map
Orbit Altitude Analysis Chart
Orbit Inclination Analysis Chart
Orbit Comprehensive Analysis Chart
View Comprehensive Chart
Conjunction Data List
Event ID Objects TCA Miss Dist (km) Collision Risk Probability Collision Risk Index (CRI) Action
CDM_260827-203806-521106-637221
2026-08-27T
20:38:10+0000
0.425 km
远距离
2.009159E-4 高风险 0.81
CDM_260904-155206-579306-637221
2026-09-04T
15:52:31+0000
0.858 km
远距离
2.398606E-5 中风险 0.63
CDM_260827-221106-521106-637221
2026-08-27T
22:11:57+0000
1.392 km
极远距离
5.488336E-6 低风险 0.5
CDM_260903-040806-046306-637223
2026-09-03T
04:08:26+0000
1.911 km
极远距离
2.354978E-6 低风险 0.42
CDM_260827-190406-521106-637221
2026-08-27T
19:04:22+0000
1.928 km
极远距离
2.082875E-6 低风险 0.41
CDM_260903-032106-046306-637223
2026-09-03T
03:21:35+0000
2.009 km
极远距离
2.076589E-6 低风险 0.41
CDM_260905-214005-284706-637221
2026-09-05T
21:40:29+0000
2.796 km
极远距离
1.312882E-6 低风险 0.37
CDM_260904-172606-579306-637221
2026-09-04T
17:26:26+0000
3.000 km
极远距离
8.012474E-7 极低风险 0.33
CDM_260905-180705-234706-637221
2026-09-05T
18:07:07+0000
2.892 km
极远距离
4.240581E-7 极低风险 0.28